OPS 9443 (DSCS 2-13)

导读

OPS 9443,又名DSCS 2-13,是美国国防卫星通信系统(DSCS)II系列中的第13颗卫星,于1979年11月21日08:00发射升空。作为美军第二代战略通信卫星,它主要为美国军方提供全球远程通信服务,承载保密语音、数据传输等关键军事通信任务。该卫星与同天发射的OPS 9444(DSCS II-14)一同,延续了DSCS II系列增强美军全球指挥通信能力的目标,服役期间助力保障美国战略军事通信网络的稳定性与覆盖范围。

基本信息
目录编号:
11621
目录名称:
OPS 9443 (DSCS 2-13)
国际标识:
1979-098A
轨道中心:
EARTH
卫星名称:
OPS 9443 (DSCS 2-13)
卫星全名:
--
卫星状态:
在轨 (已飞行17037 天)
发射日期:
1979-11-21 UTC
国别 :
美国 (US)
星等 :
--
轨道信息
数据来源 国际轨道数据
星历时间: 2026-07-13T20:42:24+0800
16小时前
查看轨道信息
半长轴: 43527.999km
偏心率: 0.0007638
轨道倾角: 10.198°
近地点辐角 132.099°
升交点赤经 312.887°
平近点角 278.081°
近地点: 37116.615km
远地点: 37183.109km
周期: 1506.305分钟
每日圈数: 0.955982
详细信息
使用方式:
暂无
2D轨道图
3D轨道图
轨道高度分析图
轨道倾角分析图
轨道综合分析图
查看轨道综合分析图